This is the latest recevied weather packets stored in our database for station/object IK2CHZ-3. If no packets are shown the sender has not sent any weather packets the latest 10 day(s).
| Time | Temp. | Humidity | Pressure | Rain* | Wind** | Luminosity | Snow |
|---|---|---|---|---|---|---|---|
| 1777512361 | 12.78° C | 88% | 1021.3 hPa | 0 mm | - | - | - |
| 1777511701 | 12.78° C | 88% | 1021.3 hPa | 0 mm | - | - | - |
| 1777511040 | 12.78° C | 88% | 1021.3 hPa | 0 mm | - | - | - |
| 1777509061 | 13.33° C | 88% | 1021.1 hPa | 1.27 mm | - | - | - |
| 1777508402 | 13.33° C | 87% | 1021.1 hPa | 1.27 mm | - | - | - |
| 1777507742 | 13.33° C | 86% | 1020.9 hPa | 1.27 mm | - | - | - |
| 1777505760 | 15° C | 77% | 1020.6 hPa | 0 mm | - | - | - |
| 1777503122 | 16.67° C | 67% | 1019.8 hPa | 0 mm | - | - | - |
| 1777501140 | 17.22° C | 66% | 1019.3 hPa | 0 mm | - | - | - |
| 1777500481 | 17.22° C | 67% | 1018.9 hPa | 0 mm | - | - | - |
| 1777499822 | 17.22° C | 66% | 1018.7 hPa | 0 mm | - | - | - |
| 1777498501 | 17.22° C | 66% | 1018.6 hPa | 0 mm | - | - | - |
| 1777497841 | 17.22° C | 65% | 1018.5 hPa | 0 mm | - | - | - |
| 1777496521 | 17.78° C | 64% | 1018 hPa | 0 mm | - | - | - |
| 1777494541 | 17.78° C | 63% | 1017.8 hPa | 0 mm | - | - | - |
| 1777493882 | 18.33° C | 63% | 1017.8 hPa | 0 mm | - | - | - |
| 1777493220 | 18.33° C | 62% | 1017.6 hPa | 0 mm | - | - | - |
| 1777491240 | 18.33° C | 65% | 1017 hPa | 0 mm | - | - | - |
| 1777490581 | 17.78° C | 66% | 1016.8 hPa | 0 mm | - | - | - |
| 1777489261 | 18.33° C | 65% | 1016.5 hPa | 0 mm | - | - | - |
| 1777488119 | 18.89° C | 64% | 1016 hPa | 0 mm | - | - | - |
| 1777487940 | 18.89° C | 64% | 1016 hPa | 0 mm | - | - | - |
| 1777487333 | 18.89° C | 64% | 1015.9 hPa | 0 mm | - | - | - |
| 1777487281 | 18.89° C | 64% | 1015.9 hPa | 0 mm | - | - | - |
| 1777486620 | 18.89° C | 64% | 1015.8 hPa | 0 mm | - | - | - |
* Rain latest hour (hover to see other rain measurements)
** Current wind speed in m/s (hover to see current wind gust speed)